Weather History for Billings, MT

Change the Weather History Date:

Tuesday, May 14, 2013

  Actual Average Record
Temperature  
Mean Temperature 68 °F 55 °F  
Max Temperature 81 °F 67 °F 96 °F (1936)
Min Temperature 54 °F 43 °F 28 °F (1953)
Degree Days  
Heating Degree Days 0 10  
Month to date heating degree days 119 173  
Since 1 July heating degree days 6211 6550  
Cooling Degree Days 3 0  
Month to date cooling degree days 27 0  
Year to date cooling degree days 27 1  
Growing Degree Days 18 (Base 50)    
Moisture  
Dew Point 35 °F    
Average Humidity 42    
Maximum Humidity 66    
Minimum Humidity 18    
Precipitation  
Precipitation 0.00 in 0.07 in 1.23 in (1976)
Month to date precipitation 0.08 0.93  
Year to date precipitation 2.24 4.61  
Snow  
Snow 0.00 in 0.10 in T in (1945)
Month to date snowfall T 1.5  
Since 1 July snowfall 40.4 54.5  
Snow Depth 0.00 in    
Sea Level Pressure  
Sea Level Pressure 29.81 in    
Wind  
Wind Speed 8 mph (NNE)    
Max Wind Speed 22 mph    
Max Gust Speed 28 mph    
Visibility 10 miles    
Events      
T = Trace of Precipitation, MM = Missing Value Source: NWS Daily Summary

Daily Weather History Graph

Daily Weather History Graph

Search for Another Location

Airport:

Trip Planner

Search our weather history database for the weather conditions in past years. The results will help you decide how hot, cold, wet, or windy it might be!

Date:

Astronomy

May. 14, 2013 Rise Set
Actual Time 5:43 AM MDT 8:38 PM MDT
Civil Twilight 5:08 AM MDT 9:13 PM MDT
Nautical Twilight 4:24 AM MDT 9:57 PM MDT
Astronomical Twilight 3:31 AM MDT 10:51 PM MDT
Moon 9:26 AM MDT (5/14) No Moon Set
Length of Visible Light 16h 04m
Length of Day
14h 54m
Waxing Crescent, 19% of the Moon is Illuminated
May 14
Waxing Crescent
May 17
First Quarter
May 24
Full
May 31
Last Quarter
Jun 8
New

Hourly Weather History & Observations

Time (MDT) Temp. Dew Point Humidity Pressure Visibility Wind Dir Wind Speed Gust Speed Precip Events Conditions
12:15 AM 79.0 °F 33.1 °F 19% 29.74 in 10.0 mi NW 17.3 mph - N/A   Partly Cloudy
12:23 AM 73.9 °F 39.0 °F 28% 29.78 in 10.0 mi North 26.5 mph 41.4 mph N/A   Partly Cloudy
12:53 AM 66.9 °F 44.1 °F 44% 29.67 in 10.0 mi North 12.7 mph - N/A   Partly Cloudy
1:53 AM 64.9 °F 43.0 °F 45% 29.71 in 10.0 mi NNE 11.5 mph 25.3 mph N/A   Partly Cloudy
2:53 AM 61.0 °F 43.0 °F 52% 29.75 in 10.0 mi North 4.6 mph - N/A   Clear
3:53 AM 59.0 °F 44.1 °F 58% 29.79 in 10.0 mi East 8.1 mph - N/A   Clear
4:53 AM 57.9 °F 45.0 °F 62% 29.81 in 10.0 mi SSE 9.2 mph - N/A   Partly Cloudy
5:53 AM 55.9 °F 44.1 °F 64% 29.83 in 10.0 mi Calm Calm - N/A   Partly Cloudy
6:53 AM 57.9 °F 45.0 °F 62% 29.83 in 10.0 mi SSW 4.6 mph - N/A   Partly Cloudy
7:53 AM 62.1 °F 45.0 °F 53% 29.86 in 10.0 mi NE 3.5 mph - N/A   Partly Cloudy
8:53 AM 64.9 °F 41.0 °F 42% 29.87 in 10.0 mi NE 10.4 mph 18.4 mph N/A   Partly Cloudy
9:53 AM 69.1 °F 30.0 °F 23% 29.86 in 10.0 mi North 15.0 mph - N/A   Partly Cloudy
10:53 AM 71.1 °F 28.0 °F 20% 29.86 in 10.0 mi North 9.2 mph 20.7 mph N/A   Partly Cloudy
11:53 AM 73.0 °F 28.9 °F 20% 29.83 in 10.0 mi Variable 6.9 mph - N/A   Partly Cloudy
12:53 PM 77.0 °F 30.0 °F 18% 29.83 in 10.0 mi NW 12.7 mph - N/A   Partly Cloudy
1:53 PM 75.0 °F 28.0 °F 18% 29.81 in 10.0 mi Variable 4.6 mph - N/A   Partly Cloudy
2:53 PM 75.9 °F 30.9 °F 19% 29.79 in 10.0 mi SSW 5.8 mph - N/A   Partly Cloudy
3:53 PM 79.0 °F 32.0 °F 18% 29.76 in 10.0 mi NNE 8.1 mph - N/A   Partly Cloudy
4:53 PM 80.1 °F 33.1 °F 18% 29.74 in 10.0 mi Variable 3.5 mph - N/A   Scattered Clouds
5:53 PM 79.0 °F 32.0 °F 18% 29.75 in 10.0 mi Calm Calm - N/A   Scattered Clouds
6:53 PM 72.0 °F 28.0 °F 20% 29.78 in 10.0 mi NE 17.3 mph 27.6 mph N/A   Mostly Cloudy
7:53 PM 69.1 °F 27.0 °F 21% 29.79 in 10.0 mi NE 17.3 mph - N/A   Scattered Clouds
8:53 PM 64.9 °F 28.0 °F 25% 29.83 in 10.0 mi NE 13.8 mph - N/A   Scattered Clouds
9:53 PM 63.0 °F 27.0 °F 26% 29.86 in 10.0 mi NE 12.7 mph - N/A   Scattered Clouds
10:53 PM 60.1 °F 27.0 °F 28% 29.88 in 10.0 mi NE 9.2 mph - N/A   Scattered Clouds
11:53 PM 59.0 °F 27.0 °F 29% 29.89 in 10.0 mi NE 8.1 mph - N/A   Scattered Clouds